User: anonymous
Location: Sandbanks Provincial Park
(47.6073°N, 57.6428°W)
Time: 10:59:09
(UTC-02:-30)
Language:

Cosmos 2034 Rocket - Orbit

View from above orbital plane
View from above orbital plane
View from above satellite
View from above satellite

Ground track
Ground track

The orbit data is extracted from the following two-line orbital elements,

1 20150U 89059B   14211.45464174  .00000088  00000-0  75166-4 0    56
2 20150 082.9418 155.0565 0028374 344.9572 145.3862 13.75581783255657
Epoch (UTC): 30 July 2014 10:54:41
Eccentricity: 0.0028374
inclination: 82.9418°
perigee height: 959 km
apogee height: 1000 km
right ascension of ascending node: 155.0565°
argument of perigee: 344.9572°
revolutions per day: 13.75581783
mean anomaly at epoch: 145.3862°
orbit number at epoch: 25565

The dashed part of the orbit path shows where the satellite is in the earth's shadow,  

DLR